STARLINK-1996 (47591 NORAD) Tracking and Keplerian Element Data

This shows tracking and keplerian element data for the satellite.

Feedback or suggestion? Click here.




ElementValue
Catalog47591
NameSTARLINK-1996
Epoch Orbit403
Epoch Day56.91667824
Epoch Year2021
RAAN17.6388
Inclination53.0534
Eccentricity0.0001249
Argument of Perigee89.9616
Mean Anonmoly277.9387
Mean Motion15.6286283
Decay Rate-0.0008153
L11 47591U 21009AV 21056.91667824 -.00081530 00000-0 -88970-3 0 9999
L22 47591 53.0534 17.6388 0001249 89.9616 277.9387 15.62862830 4037

Live tracking and technical data element details for STARLINK-1996 (NORAD 47591). STARLINK-1996 can be tracked NOW for your location showing map with azimuth and elevation plus other details from your city location.

Track the satellite on the map from your city or location and see movement details for azimuth, elevation, latitude, longitude, range, height, and movement on the map or in text.







IsCatalogInMostPopularTable: catalog: 47591, numindb: -1

Insert: records affected: 1


GetName: 47591 STARLINK-1996

Hit Count: inserted at: Fri, 26 Feb 2021 09:54:52 GMT